{"data":{"norad_id":61955,"epoch":"2026-05-24T23:56:29.368032Z","epoch_age_seconds":71433,"freshness":"FRESH","line1":"1 61955U 24209S   26144.99756213  .00046294  00000+0  10660-2 0  9991","line2":"2 61955  53.1592 145.5680 0001137  77.6120 282.5013 15.42183612 86623","mean_motion":15.42183612,"eccentricity":0.0001137,"inclination_deg":53.1592,"raan_deg":145.568,"arg_perigee_deg":77.612,"mean_anomaly_deg":282.5013,"bstar":0.001066,"rev_number":8662,"period_min":93.374095587264,"perigee_km":438.89087811254,"apogee_km":440.44124652892,"semimajor_km":6817.8030623207,"source":"CELESTRAK","updated_at":"2026-05-25T13:38:19.489624Z"}}